Torna al catalogo

ONEWEB-0322

AttivoComunicazioniPO
NORAD 49192·PAYLOAD·🇬🇧 United Kingdom

Lanciato Sep 14, 2021 da Baikonur Cosmodrome

Loading…

Prossimi Passaggi (prossime 24 ore)

TLE

AggiornatoSource: CelesTrak SupGP

Epoca: Sep 14, 2026, 09:11 UTC

1 49192C 21083G   26257.38278196  .00000106  00000+0  29162-3 0  2571
2 49192  87.8911 302.4887 0002066  85.3115  25.4639 13.13466304    11

Traccia ONEWEB-0322 in tempo reale con AllMySat

Download on the App Store